STARLINK-6094 (56122 NORAD) Tracking and Keplerian Element Data

This shows tracking and keplerian element data for the satellite.

Feedback or suggestion? Click here.




ElementValue
Catalog56122
NameSTARLINK-6094
Epoch Orbit652
Epoch Day127.25001157
Epoch Year2023
RAAN37.5433
Inclination43.0012
Eccentricity0.0001383
Argument of Perigee278.9522
Mean Anonmoly208.9488
Mean Motion15.31970234
Decay Rate-0.00894931
L11 56122U 23046AF 23127.25001157 -.00894931 00000+0 -30924-1 0 9991
L22 56122 43.0012 37.5433 0001383 278.9522 208.9488 15.31970234 6520



Live tracking and technical data element details for STARLINK-6094 (NORAD 56122). STARLINK-6094 can be tracked NOW for your location showing map with azimuth and elevation plus other details from your city location.







IsCatalogInMostPopularTable: catalog: 56122, numindb: 3
Update: records affected: 1



GetName: 56122 STARLINK-6094

Hit Count: updated at: Sat, 03 Jun 2023 18:25:37 GMT